Погода в Тамариндо

Коста-Рика     10°18′53″N   85°48′55″W
темп.,
°C
ветер,
м/с
пор.,
м/с
влажн.,
%
обл.,
%
осадки,
мм/ч
давл.,
гПа
погр.,
м
9 августа, вт
вт900:00+23в228976 0.1 101016
03:00+23в228999 0.0 100934
06:00+23вюв229086 0.0 101129
09:00+28в247572 0.0 1012684
12:00+29ю127383 0.8 1010782
15:00+29юз2277100 6.3 1008287
18:00+26ююз128798 8.3 100945
21:00+24в359195 1.1 1012109
10 августа, ср
ср1000:00+23в229152 1.2 101132
03:00+23всв3392100 0.0 101057
06:00+23всв249381 0.0 1011114
09:00+27всв4779100 0.0 1012776
12:00+29вюв2373100 0.4 1011996
15:00+28ююз2280100 5.4 1009461
18:00+25в1188100 7.7 101132
21:00+24вюв2291100 0.0 101269
11 августа, чт
чт1100:00+24юв119389 0.1 101212
03:00+23всв119579 0.9 101111
06:00+23св2295100 0.9 101144
09:00+27ссв237956 0.0 1012607
12:00+30св376640 0.3 10111453
15:00+29св4769100 0.8 10091198
18:00+24всв3987100 1.1 1010342
21:00+23в2488100 0.1 101288
12 августа, пт
пт1200:00+23юв2291100 0.5 101326
03:00+23в1194100 1.1 101123
06:00+23всв2293100 2.8 101245
09:00+24всв2387100 0.9 1014330
12:00+24вюв0190100 2.4 1014133
15:00+23юз1194100 1.3 1012119
18:00+23ссв1295100 1.3 101236
21:00+22в1194100 0.1 101422
13 августа, сб
сб1300:00+22юв1191100 0.1 101312
03:00+22ююв1192100 0.0 101214
06:00+22всв2293100 0.0 101231
09:00+26ю227940 0.0 1014501
12:00+27юз3377100 1.0 1013731
15:00+27юз3380100 1.5 1011632
18:00+24ююз3489100 3.0 101285
21:00+23юв1192100 2.2 101316